Tracking 34408 objects as of 13-Jun-2026
HD Live streaming from Space Station
objects crossing your sky now

STARLINK-34605

Track STARLINK-34605 now!
10-day predictions
STARLINK-34605 is classified as:


NORAD ID: 64677
Int'l Code: 2025-139P
Perigee: 481.5 km
Apogee: 483.1 km
Inclination: 53.2 °
Period: 94.1 minutes
Semi major axis: 6853 km
RCS: Unknown
Launch date: June 28, 2025
Source: United States (US)
Launch site: AIR FORCE EASTERN TEST RANGE (AFETR)
Your satellite tracking list
Your tracking list is empty




NASA's NSSDC Master Catalog

Two Line Element Set (TLE):
1 64677U 25139P   26163.93034618  .00021165  00000-0  72421-3 0  9996
2 64677  53.1601  34.1765 0001146  96.2734 263.8397 15.30220436 55012
Source of the keplerian elements: AFSPC